Location: Nairn
(57.5833°N, 3.8667°W)
Time: 22:42:04
(UTC+00:00)

Vanguard 2 Rocket - All Passes

Search period start: 05 December 2020 00:00
Search period end: 15 December 2020 00:00
Orbit: 553 x 3326 km, 32.9° (Epoch: 05 December)

Date Brightness Start Highest point End Pass type
(mag) Time Alt. Az. Time Alt. Az. Time Alt. Az.
05 Dec - 04:51:45 10° S 05:01:52 17° SE 05:12:34 10° ESE visible
05 Dec - 07:00:27 10° SW 07:15:18 29° SSE 07:29:53 10° ESE visible
05 Dec - 09:13:57 10° WSW 09:29:34 30° S 09:43:10 10° SE daylight
05 Dec - 11:31:04 10° WSW 11:42:52 20° SW 11:52:44 10° S daylight
06 Dec - 03:55:59 10° SSE 04:01:50 12° SE 04:08:00 10° ESE visible
06 Dec - 06:00:59 10° SSW 06:14:33 26° SSE 06:28:46 10° ESE visible
06 Dec - 08:13:01 10° SW 08:28:43 31° S 08:43:23 10° SE daylight
06 Dec - 10:28:36 10° WSW 10:42:37 25° SSW 10:54:35 10° SSE daylight
06 Dec - 12:51:46 10° WSW 12:54:44 11° SW 12:57:33 10° SW daylight
07 Dec - 05:02:19 10° S 05:14:01 22° SSE 05:26:54 10° ESE visible
07 Dec - 07:12:41 10° SW 07:27:47 31° S 07:43:02 10° ESE visible
07 Dec - 09:26:54 10° WSW 09:42:03 28° SSW 09:55:39 10° SSE daylight
07 Dec - 11:45:20 10° WSW 11:55:01 16° SW 12:03:32 10° S daylight
08 Dec - 04:04:47 10° S 04:13:50 17° SE 04:23:58 10° ESE visible
08 Dec - 06:12:56 10° SSW 06:26:57 29° SSE 06:42:05 10° ESE visible
08 Dec - 08:25:48 10° WSW 08:41:14 31° S 08:56:03 10° SE daylight
08 Dec - 10:42:12 10° WSW 10:54:54 21° SSW 11:06:11 10° S daylight
09 Dec - 03:09:57 10° SE 03:14:01 11° SE 03:18:22 10° ESE visible
09 Dec - 05:13:51 10° SSW 05:26:18 25° SSE 05:40:32 10° ESE visible
09 Dec - 07:25:18 10° SW 07:40:19 31° S 07:55:51 10° SE visible
09 Dec - 09:40:10 10° WSW 09:54:26 26° SSW 10:07:40 10° SSE daylight
09 Dec - 12:01:29 10° WSW 12:07:00 12° SW 12:12:12 10° SSW daylight
10 Dec - 04:15:35 10° S 04:25:59 21° SSE 04:38:13 10° ESE visible
10 Dec - 06:25:22 10° SW 06:39:25 30° S 06:55:05 10° ESE visible
10 Dec - 08:38:53 10° WSW 08:53:43 29° SSW 09:08:20 10° SE daylight
10 Dec - 10:56:32 10° WSW 11:07:03 17° SW 11:16:47 10° S daylight
11 Dec - 03:18:30 10° SSE 03:26:02 15° SE 03:34:45 10° ESE visible
11 Dec - 05:26:01 10° SSW 05:38:42 28° SSE 05:53:43 10° ESE visible
11 Dec - 07:38:14 10° WSW 07:52:51 30° S 08:08:20 10° SE visible
11 Dec - 09:53:54 10° WSW 10:06:44 22° SSW 10:19:00 10° S daylight
12 Dec - 04:27:18 10° SSW 04:38:17 24° SSE 04:51:44 10° ESE visible
12 Dec - 06:38:09 10° SW 06:51:58 31° S 07:07:44 10° SE visible
12 Dec - 08:52:19 10° WSW 09:06:08 26° SSW 09:20:07 10° SSE daylight
12 Dec - 11:12:34 10° WSW 11:19:04 12° SW 11:25:20 10° SSW daylight
13 Dec - 03:29:25 10° S 03:38:13 19° SE 03:49:01 10° ESE visible
13 Dec - 05:38:36 10° SW 05:51:13 29° S 06:06:33 10° ESE visible
13 Dec - 07:51:28 10° WSW 08:05:22 28° SSW 08:20:25 10° SE visible
13 Dec - 10:08:22 10° WSW 10:18:55 17° SW 10:29:19 10° S daylight
14 Dec - 02:32:59 10° SSE 02:38:32 13° SE 02:44:58 10° ESE visible
14 Dec - 04:39:37 10° SSW 04:50:43 26° SSE 05:04:49 10° ESE visible
14 Dec - 06:51:15 10° WSW 07:04:33 29° S 07:20:02 10° SE visible
14 Dec - 09:06:12 10° WSW 09:18:29 22° SSW 09:31:11 10° S daylight
